Guernsey Airport


Codes: EGJB/GCI
Name: Guernsey Airport
City: Guernsey
Country: Guernsey
Elevation: 336 ft.
Wikipedia:

Photos at Guernsey Airport


   Photos courtesy of SpottingLog. You can add your own sightings and photos by signing up for a free trial today.



D-ICAO, 28-Sep-2023
© Edward Gaudion

N302JG, 15-Jul-2023
© Edward Gaudion

G-ISLK, 15-Jul-2023
© Edward Gaudion

G-ETAC, 15-Jul-2023
© Edward Gaudion

G-CLXT, 15-Jul-2023
© Edward Gaudion

G-CLSN, 15-Jul-2023
© Edward Gaudion

M-ARIE, 08-Jul-2023
© Edward Gaudion

G-CLXT, 08-Jul-2023
© Edward Gaudion

9H-NEF, 08-Jul-2023
© Edward Gaudion

G-OSRL, 14-Jun-2023
© Edward Gaudion

G-CLXT, 14-Jun-2023
© Edward Gaudion

2-NITE, 04-Jun-2023
© Edward Gaudion


Weather at Guernsey Airport


Time (UTC)DescriptionTempratureWindCloud coverageVisibilityPressureHumidity
26-Jun-2024 00:00Clear Sky15°C9 mph, NE0%10000m1014hPa91%
26-Jun-2024 03:00Clear Sky16°C9 mph, NE1%10000m1013hPa90%
26-Jun-2024 06:00Clear Sky16°C11 mph, NE4%10000m1013hPa88%
26-Jun-2024 09:00Clear Sky16°C7 mph, NE0%10000m1013hPa88%
26-Jun-2024 12:00Clear Sky17°C4 mph, NE0%10000m1013hPa87%
26-Jun-2024 15:00Clear Sky17°C4 mph, N4%10000m1012hPa83%
26-Jun-2024 18:00Clear Sky18°C4 mph, NW4%10000m1011hPa76%
26-Jun-2024 21:00Clear Sky18°C4 mph, W1%10000m1011hPa79%
27-Jun-2024 00:00Scattered Clouds16°C13 mph, W28%10000m1012hPa92%
27-Jun-2024 03:00Overcast Clouds15°C16 mph, W100%10000m1010hPa94%
27-Jun-2024 06:00Overcast Clouds15°C13 mph, W100%10000m1011hPa94%
27-Jun-2024 09:00Broken Clouds15°C13 mph, W65%10000m1012hPa89%
27-Jun-2024 12:00Light Rain15°C16 mph, W71%10000m1013hPa91%
27-Jun-2024 15:00Few Clouds15°C18 mph, W19%10000m1014hPa81%
27-Jun-2024 18:00Clear Sky15°C20 mph, W10%10000m1014hPa81%
27-Jun-2024 21:00Scattered Clouds15°C20 mph, W37%10000m1016hPa81%
28-Jun-2024 00:00Broken Clouds14°C20 mph, W68%10000m1016hPa81%
28-Jun-2024 03:00Few Clouds14°C18 mph, NW23%10000m1017hPa79%
28-Jun-2024 06:00Scattered Clouds14°C13 mph, W26%10000m1018hPa74%
28-Jun-2024 09:00Clear Sky14°C11 mph, W1%10000m1020hPa72%
28-Jun-2024 12:00Clear Sky14°C9 mph, W1%10000m1020hPa70%
28-Jun-2024 15:00Scattered Clouds15°C9 mph, W46%10000m1020hPa70%
28-Jun-2024 18:00Broken Clouds15°C4 mph, W72%10000m1019hPa70%
28-Jun-2024 21:00Overcast Clouds15°C2 mph, NW100%10000m1019hPa73%
29-Jun-2024 00:00Overcast Clouds14°C2 mph, S100%10000m1017hPa72%
29-Jun-2024 03:00Scattered Clouds14°C2 mph, SW47%10000m1016hPa72%
29-Jun-2024 06:00Broken Clouds14°C7 mph, N73%10000m1014hPa75%
29-Jun-2024 09:00Light Rain14°C4 mph, E100%10000m1014hPa76%
29-Jun-2024 12:00Overcast Clouds14°C4 mph, W98%10000m1012hPa75%
29-Jun-2024 15:00Overcast Clouds15°C9 mph, W100%10000m1011hPa72%
29-Jun-2024 18:00Overcast Clouds15°C11 mph, W100%10000m1010hPa75%
29-Jun-2024 21:00Overcast Clouds15°C16 mph, W99%10000m1009hPa87%
30-Jun-2024 00:00Light Rain15°C18 mph, SW100%10000m1009hPa94%
30-Jun-2024 03:00Light Rain15°C16 mph, SW97%10000m1007hPa95%
30-Jun-2024 06:00Light Rain15°C16 mph, SW99%10000m1007hPa95%
30-Jun-2024 09:00Moderate Rain14°C18 mph, NW91%10000m1008hPa79%
30-Jun-2024 12:00Broken Clouds14°C20 mph, NW62%10000m1010hPa76%
30-Jun-2024 15:00Overcast Clouds15°C20 mph, W100%10000m1011hPa75%
30-Jun-2024 18:00Broken Clouds14°C22 mph, W80%10000m1012hPa77%
30-Jun-2024 21:00Overcast Clouds15°C22 mph, W89%10000m1013hPa78%